Tracking 27122 objects as of 25-Mar-2023
HD Live streaming from Space Station
objects crossing your sky now

STARLINK-3953

Track STARLINK-3953 now!
10-day predictions
STARLINK-3953 is classified as:


NORAD ID: 52559
Int'l Code: 2022-051AC
Perigee: 545.9 km
Apogee: 547.6 km
Inclination: 53.2 °
Period: 95.4 minutes
Semi major axis: 6917 km
RCS: Unknown
Launch date: May 13, 2022
Source: United States (US)
Launch site: AIR FORCE WESTERN TEST RANGE (AFWTR)
Your satellite tracking list
Your tracking list is empty




NASA's NSSDC Master Catalog

Two Line Element Set (TLE):
1 52559U 22051AC  23083.89015890  .00017527  00000-0  11151-2 0  9995
2 52559  53.2148 291.1999 0001241  83.1459 276.9674 15.08889270 48482
Source of the keplerian elements: AFSPC